TimeCST,TemperatureF,Dew PointF,Humidity,Sea Level PressureIn,VisibilityMPH,Wind Direction,Wind SpeedMPH,Gust SpeedMPH,PrecipitationIn,Events,Conditions,WindDirDegrees,DateUTC
12:06 AM,33.8,32.0,93,29.98,2.5,SE,18.4,-,0.02,Rain,Light Rain,130,2013-03-09 06:06:00
12:15 AM,33.8,30.2,87,29.98,3.0,SE,16.1,-,0.02,,Overcast,140,2013-03-09 06:15:00
12:38 AM,33.8,32.0,93,29.97,2.5,SE,15.0,-,0.03,Rain,Light Rain,140,2013-03-09 06:38:00
12:47 AM,33.8,32.0,93,29.96,2.0,SE,17.3,-,0.07,Rain,Rain,140,2013-03-09 06:47:00
12:52 AM,33.1,32.0,96,29.99,2.0,SE,18.4,-,0.09,Rain,Rain,140,2013-03-09 06:52:00
1:14 AM,33.8,32.0,93,29.94,4.0,SE,18.4,-,0.02,,Overcast,140,2013-03-09 07:14:00
1:52 AM,34.0,32.0,92,29.97,2.5,SE,18.4,-,0.03,Rain,Light Rain,140,2013-03-09 07:52:00
2:36 AM,33.8,32.0,93,29.90,3.0,SSE,18.4,-,0.05,Rain,Light Rain,150,2013-03-09 08:36:00
2:52 AM,34.0,32.0,92,29.92,3.0,SSE,18.4,-,0.07,Rain,Light Rain,150,2013-03-09 08:52:00
3:02 AM,33.8,32.0,93,29.87,2.5,SSE,18.4,-,0.02,Rain,Light Rain,150,2013-03-09 09:02:00
3:09 AM,33.8,33.8,100,29.87,2.5,SSE,17.3,-,0.03,Rain,Light Rain,150,2013-03-09 09:09:00
3:52 AM,34.0,33.1,96,29.89,2.5,SSE,17.3,-,0.12,Rain,Light Rain,160,2013-03-09 09:52:00
4:08 AM,35.6,33.8,93,29.86,3.0,SSE,16.1,24.2,0.02,Rain,Light Rain,160,2013-03-09 10:08:00
4:35 AM,35.6,33.8,93,29.86,2.5,SSE,16.1,-,0.07,Rain,Rain,160,2013-03-09 10:35:00
4:45 AM,35.6,33.8,93,29.85,3.0,South,18.4,-,0.08,Rain,Light Rain,170,2013-03-09 10:45:00
4:52 AM,35.1,33.1,92,29.89,4.0,South,16.1,-,0.08,Rain,Light Rain,170,2013-03-09 10:52:00
5:34 AM,35.6,33.8,93,29.83,4.0,SSE,19.6,-,0.01,,Overcast,160,2013-03-09 11:34:00
5:52 AM,35.1,33.1,92,29.86,3.0,SSE,18.4,-,0.01,,Overcast,160,2013-03-09 11:52:00
6:15 AM,35.6,33.8,93,29.81,3.0,SSE,19.6,-,N/A,,Overcast,160,2013-03-09 12:15:00
6:22 AM,35.6,33.8,93,29.80,2.5,SSE,20.7,-,N/A,,Overcast,150,2013-03-09 12:22:00
6:52 AM,34.0,33.1,96,29.84,1.8,SSE,19.6,-,N/A,,Overcast,160,2013-03-09 12:52:00
7:38 AM,33.8,33.8,100,29.78,1.0,SSE,19.6,-,N/A,,Overcast,150,2013-03-09 13:38:00
7:52 AM,34.0,33.1,96,29.82,1.2,SSE,19.6,-,N/A,,Overcast,150,2013-03-09 13:52:00
8:00 AM,33.8,33.8,100,29.79,1.0,SSE,18.4,-,N/A,,Overcast,150,2013-03-09 14:00:00
8:39 AM,33.8,33.8,100,29.77,1.2,SSE,18.4,-,0.01,Rain,Rain,160,2013-03-09 14:39:00
8:52 AM,34.0,33.1,96,29.81,1.8,SSE,18.4,-,0.03,Rain,Light Rain,150,2013-03-09 14:52:00
9:06 AM,35.6,33.8,93,29.76,2.0,SSE,18.4,-,0.02,Rain,Light Rain,150,2013-03-09 15:06:00
9:52 AM,35.1,34.0,96,29.77,2.0,SSE,17.3,-,0.06,,Overcast,150,2013-03-09 15:52:00
10:05 AM,35.6,33.8,93,29.73,1.8,SSE,17.3,-,0.00,,Overcast,150,2013-03-09 16:05:00
10:41 AM,35.6,33.8,93,29.71,1.0,SSE,17.3,-,0.01,,Overcast,150,2013-03-09 16:41:00
10:52 AM,35.1,34.0,96,29.74,1.2,SSE,17.3,-,0.01,Rain,Light Rain,150,2013-03-09 16:52:00
11:52 AM,36.0,35.1,97,29.74,1.8,SSE,16.1,-,0.11,Rain,Rain,160,2013-03-09 17:52:00
12:35 PM,35.6,35.6,100,29.67,3.0,SSE,15.0,-,0.10,Rain,Light Rain,150,2013-03-09 18:35:00
12:52 PM,36.0,35.1,97,29.70,3.0,SSE,16.1,-,0.10,,Overcast,150,2013-03-09 18:52:00
1:09 PM,35.6,35.6,100,29.66,2.0,SSE,13.8,-,N/A,,Overcast,160,2013-03-09 19:09:00
1:17 PM,35.6,35.6,100,29.65,1.2,SSE,13.8,-,N/A,,Overcast,150,2013-03-09 19:17:00
1:26 PM,35.6,35.6,100,29.65,0.8,SSE,15.0,-,N/A,,Overcast,160,2013-03-09 19:26:00
1:43 PM,37.4,35.6,93,29.63,1.2,SSE,17.3,23.0,N/A,,Overcast,160,2013-03-09 19:43:00
1:52 PM,37.0,36.0,96,29.66,1.2,SSE,15.0,-,N/A,,Overcast,160,2013-03-09 19:52:00
2:52 PM,37.9,37.0,97,29.67,1.2,South,9.2,-,N/A,,Overcast,180,2013-03-09 20:52:00
3:38 PM,37.4,37.4,100,29.66,1.0,South,8.1,-,N/A,,Overcast,190,2013-03-09 21:38:00
3:45 PM,37.4,37.4,100,29.65,0.5,South,5.8,-,N/A,Fog,Fog,180,2013-03-09 21:45:00
3:52 PM,37.0,37.0,100,29.68,0.2,South,5.8,-,N/A,Fog,Fog,170,2013-03-09 21:52:00
4:52 PM,36.0,35.1,97,29.67,0.2,South,5.8,-,N/A,Fog,Fog,170,2013-03-09 22:52:00
5:52 PM,36.0,35.1,97,29.68,0.2,SE,6.9,-,N/A,Fog,Fog,140,2013-03-09 23:52:00
6:52 PM,36.0,36.0,100,29.70,0.2,Calm,Calm,-,0.00,Fog,Fog,0,2013-03-10 00:52:00
7:15 PM,35.6,35.6,100,29.67,1.2,North,8.1,-,0.00,,Overcast,350,2013-03-10 01:15:00
7:52 PM,35.1,34.0,96,29.74,2.5,North,9.2,-,0.00,,Overcast,360,2013-03-10 01:52:00
8:40 PM,33.8,32.0,93,29.74,3.0,NNW,16.1,-,N/A,,Overcast,340,2013-03-10 02:40:00
8:52 PM,33.1,32.0,96,29.77,5.0,NNW,13.8,-,N/A,,Overcast,340,2013-03-10 02:52:00
9:10 PM,33.8,32.0,93,29.73,10.0,North,13.8,-,N/A,,Overcast,350,2013-03-10 03:10:00
9:20 PM,33.8,32.0,93,29.73,10.0,North,15.0,-,N/A,,Overcast,360,2013-03-10 03:20:00
9:41 PM,33.8,32.0,93,29.75,10.0,North,12.7,-,N/A,,Overcast,360,2013-03-10 03:41:00
9:52 PM,33.1,30.9,92,29.79,10.0,North,17.3,-,N/A,,Overcast,350,2013-03-10 03:52:00
10:52 PM,33.1,30.9,92,29.80,10.0,North,17.3,-,N/A,,Overcast,350,2013-03-10 04:52:00
11:52 PM,33.1,30.9,92,29.78,5.0,North,19.6,-,0.02,Snow,Light Snow,360,2013-03-10 05:52:00